Regional Weather Roundup
Issued by NWS Little Rock, AR

Home | Current Version | Previous Version | Text Only | Print | Product List | Glossary On
Versions: 1 2 3 4 5 6 7 8 9 10 11 12 13 14 15 16 17 18 19 20 21 22 23 24 25 26 27
000
ASUS44 KLZK 240905
RWRLZK

WEATHER ROUNDUP FOR ARKANSAS
NATIONAL WEATHER SERVICE LITTLE ROCK AR
400 AM CDT SUN JUL 24 2016

NOTE: "FAIR" INDICATES FEW OR NO CLOUDS BELOW 12,000 FEET WITH NO
SIGNIFICANT WEATHER AND/OR OBSTRUCTIONS TO VISIBILITY.

ARZ001-003-010-029-241000-
NORTHWEST ARKANSAS

CITY           SKY/WX    TMP DP  RH WIND       PRES   REMARKS
FAYETTEVILLE   CLEAR     73  73 100 SE3       29.97S
FORT SMITH     PTCLDY    78  72  81 E3        29.93R
HARRISON       PTCLDY    72  71  97 CALM      29.97S
BENTONVILLE    CLEAR     77  68  73 CALM      29.97F
ROGERS         CLEAR     76  73  91 SE5       29.98S
SILOAM SPGS    CLEAR     75  64  69 S5        29.97S
HIGHFILL       CLEAR     77  73  87 S6        29.96F
$$

ARZ004-005-016-241000-
NORTH CENTRAL ARKANSAS

CITY           SKY/WX    TMP DP  RH WIND       PRES   REMARKS
BATESVILLE     CLOUDY    73  70  88 CALM      29.94S
FLIPPIN        CLOUDY    75  70  83 CALM      29.92R
$$

ARZ040-041-241000-
WEST CENTRAL ARKANSAS

CITY           SKY/WX    TMP DP  RH WIND       PRES   REMARKS
MENA           MOCLDY    77  73  88 CALM      29.98R
MOUNT IDA      MOCLDY    75  74  96 CALM      29.94R FOG
$$

ARZ009-017-025-026-028-241000-
NORTHEAST ARKANSAS

CITY           SKY/WX    TMP DP  RH WIND       PRES   REMARKS
CORNING          N/A     75  75 100 S5        29.93F
JONESBORO      LGT RAIN  76  73  91 CALM      29.93S
NEWPORT        CLOUDY    76  76 100 S5        29.95R
WALNUT RIDGE   PTCLDY    75  73  94 CALM      29.93S
BLYTHEVILLE    MOCLDY    79  76  90 CALM      29.94R
$$

ARZ022-023-033-042-044-241000-
CENTRAL ARKANSAS

CITY           SKY/WX    TMP DP  RH WIND       PRES   REMARKS
LITTLE ROCK    CLOUDY    77  72  84 CALM      29.94R
N LITTLE ROCK    N/A     75  72  89 CALM      29.91R
JACKSONVILLE   CLOUDY    76  75  99 CALM      29.93R
SEARCY         CLOUDY    73  73 100 CALM      29.95
HOT SPRINGS    CLOUDY    76  73  91 CALM      29.95S
RUSSELLVILLE   MOCLDY    76  73  91 CALM      29.93S
$$

ARZ036-241000-
EAST ARKANSAS

CITY           SKY/WX    TMP DP  RH WIND       PRES   REMARKS
WEST MEMPHIS   CLOUDY    76  74  93 CALM      29.93R
$$

ARZ050-053-066-070-073-241000-
SOUTHWEST ARKANSAS

CITY           SKY/WX    TMP DP  RH WIND       PRES   REMARKS
CAMDEN         CLOUDY    72  68  88 CALM      29.94R FOG
TEXARKANA      CLEAR     74  72  93 SE5       29.94S
EL DORADO      CLOUDY    74  72  93 S6        29.94F
DE QUEEN       FOG       71  71 100 CALM      29.93R VSB 3/4
$$

ARZ056-057-069-241000-
SOUTHEAST ARKANSAS

CITY           SKY/WX    TMP DP  RH WIND       PRES   REMARKS
PINE BLUFF     CLOUDY    74  72  93 CALM      29.94R
STUTTGART      CLOUDY    75  70  83 CALM      29.94R
MONTICELLO     CLEAR     75  72  90 E3        29.93S

$$






USA.gov is the U.S. government's official web portal to all federal, state and local government web resources and services.